Flag for Canada Weather past 2 weeks in Grande Prairie, Alberta, Canada

Now
46 °F

Passing clouds.


Feels Like: 42 °F
Forecast: 34 / 47 °F
Wind: 8 mph from Southwest

Location: Grande Prairie

Current Time: Oct 22, 2014 at 8:29:23 PM

Latest Report: Oct 22, 2014 at 7:00 PM


Visibility: 25 mi

Pressure: 29.59 "Hg

Humidity: 66%

Dew point: 36 °F

Location of Grande PrairieLocation

Historic Weather in Grande Prairie — Graph

°F

Grande Prairie temperature yesterday

Maximum temperature yesterday: 57 °F (at 3:00 PM)
Minimum temperature yesterday: 30 °F (at 8:00 AM)
Average temperature yesterday: 43 °F

Past Weeks' High & Low Weather Summary

 TemperatureHumidityPressure
High70 °F (Oct 10, 3:00 PM)100% (Oct 8, 5:00 AM)30.14 "Hg (Oct 8, 5:00 AM)
Low25 °F (Oct 15, 7:00 AM)33% (Oct 10, 5:00 PM)29.49 "Hg (Oct 22, 1:00 PM)
Average44 °F76%29.76 "Hg
* Reported Oct 7 7:00 PM — Oct 22 7:00 PM, Grande Prairie, Weather by CustomWeather, © 2014

Note: Actual official high and low records may vary slightly from our data, if they occured in-between our weather recording intervals... More about our weather records

Advertising

Grande Prairie weather history for previous 24 hours

 ConditionsComfort  
Time TempWeatherWind HumidityBarometerVisibility
7:00 PM
Oct 22
46 °FPassing clouds.8 mph66%29.59 "Hg25 mi
6:00 PM52 °FScattered clouds.9 mph54%29.58 "Hg25 mi
5:00 PM52 °FPartly sunny.9 mph58%29.57 "Hg25 mi
4:00 PM52 °FSprinkles. Partly sunny.15 mph58%29.56 "Hg20 mi
3:00 PM52 °FSprinkles. Partly sunny.14 mph67%29.55 "Hg20 mi
2:00 PM57 °FMostly cloudy.6 mph44%29.49 "Hg25 mi
1:00 PM55 °FPartly sunny.13 mph44%29.49 "Hg25 mi
12:00 PM48 °FPartly sunny.7 mph58%29.50 "Hg25 mi
11:00 AM45 °FPartly sunny.2 mph66%29.51 "Hg25 mi
10:00 AM45 °FMore clouds than sun.7 mph61%29.50 "Hg25 mi
9:00 AM46 °FOvercast.8 mph57%29.50 "Hg25 mi
8:00 AM45 °FPassing clouds.9 mph66%29.51 "Hg20 mi
7:00 AM43 °FMostly cloudy.8 mph71%29.53 "Hg25 mi
6:00 AM43 °FPassing clouds.3 mph66%29.53 "Hg25 mi
5:00 AM43 °FOvercast.7 mph66%29.55 "Hg25 mi
4:00 AM39 °FPartly cloudy.7 mph75%29.57 "Hg25 mi
3:00 AM37 °FPartly cloudy.6 mph81%29.59 "Hg25 mi
2:00 AM39 °FPartly cloudy.8 mph81%29.60 "Hg25 mi
1:00 AM39 °FPassing clouds.3 mph81%29.62 "Hg25 mi
12:00 AM37 °FPassing clouds.2 mph93%29.64 "Hg25 mi
11:00 PM
Oct 21
37 °FPassing clouds.No wind87%29.67 "Hg25 mi
10:00 PM39 °FPassing clouds.2 mph87%29.67 "Hg25 mi
9:00 PM41 °FPassing clouds.No wind87%29.67 "Hg25 mi
8:00 PM48 °FPassing clouds.5 mph71%29.65 "Hg25 mi
Weather by CustomWeather, © 2014

See weather overviewHow to use our weather pages